Theta_e
312 312 311 310 310 310 309 309 308 308 307 306 306 306 305 304 302 301 300 299 298 297 296 295 295 294 294 293 293 293 293 292 292 293 293 293 293 293 293 293 293 293 291 290 289 288 288 287 287 287 286 286 285 285 285 284 284 284 284 284 284 284 284 284 284 286 289 289 288 286 285 285 285 285 285 285 285 285 285 286 286 286 285 285 285
311 312 312 311 310 310 310 309 308 308 307 306 306 306 305 303 302 301 300 299 298 297 296 295 294 294 293 293 293 292 292 292 292 293 293 293 293 293 293 293 293 292 291 289 289 288 288 287 287 286 286 286 285 285 285 284 284 284 284 283 284 284 284 284 284 285 287 288 288 287 286 285 285 285 285 284 285 285 285 285 285 285 284 283 284
310 311 311 311 311 310 309 309 308 308 307 307 307 306 305 303 302 300 299 298 297 296 295 294 294 293 293 293 292 292 292 292 292 292 292 292 293 292 292 292 292 292 290 289 288 288 288 287 286 286 286 285 285 285 284 284 284 283 284 283 283 284 283 283 284 284 285 287 287 287 286 285 285 286 285 285 284 284 285 285 285 284 282 281 282
309 309 310 311 311 310 309 309 308 308 308 307 306 306 304 303 302 300 299 297 296 296 295 294 293 293 293 292 292 291 291 291 292 292 292 292 292 292 292 292 292 291 290 288 288 288 287 287 286 286 286 285 285 284 284 284 283 283 283 283 283 283 283 283 284 284 284 285 286 286 286 285 285 285 284 285 284 284 284 285 284 283 282 281 282
309 309 309 310 311 310 309 309 308 308 308 307 306 306 305 303 302 300 298 297 296 295 294 294 293 293 293 292 291 291 291 291 291 292 292 292 292 292 292 292 291 290 289 288 288 288 287 287 286 285 286 285 285 284 284 283 283 283 283 283 283 283 283 283 283 284 284 285 285 286 286 286 285 283 282 283 283 284 285 285 284 282 281 282 281
309 309 308 308 309 310 309 309 309 309 308 307 306 306 304 303 301 300 299 297 295 294 294 294 293 293 292 292 291 291 290 291 291 291 291 291 291 291 291 291 291 289 288 288 288 287 287 286 286 286 285 285 285 284 284 284 283 283 283 283 283 283 283 283 284 284 284 285 285 286 286 285 284 283 282 281 280 281 283 284 283 280 279 280 280
309 309 308 307 308 309 309 309 309 309 308 306 305 305 303 302 301 299 298 297 295 294 294 293 293 292 292 291 291 290 290 290 290 291 291 291 291 291 291 291 290 289 288 288 288 287 287 286 286 286 285 285 285 284 284 284 283 283 283 283 283 283 283 283 283 283 283 284 284 284 284 284 282 282 281 280 278 278 279 280 281 280 279 278 279
309 309 308 307 307 308 309 309 309 308 306 305 304 303 301 301 299 298 298 296 295 294 294 294 293 292 292 291 290 290 290 290 290 290 290 290 290 290 290 290 289 288 288 288 287 287 286 286 286 285 285 285 285 284 284 283 283 283 283 283 283 283 283 282 281 281 280 280 281 280 281 281 280 280 280 278 277 278 277 277 278 279 279 279 278
309 309 308 308 308 308 308 308 307 306 305 304 303 302 301 299 298 297 297 296 295 294 294 293 292 292 291 291 290 290 289 289 290 290 290 290 290 290 290 290 289 288 288 287 287 287 286 286 285 285 285 285 284 284 284 283 283 283 283 283 282 282 281 279 278 278 278 278 278 278 277 278 278 278 278 277 277 277 277 278 277 277 278 278 278
309 309 309 309 309 308 308 307 306 305 304 303 303 302 300 299 297 297 296 295 294 294 293 293 292 292 291 291 290 289 289 289 289 290 290 290 290 290 290 289 288 288 287 287 287 286 286 285 285 285 285 284 284 284 284 283 282 282 282 281 281 279 278 277 277 277 277 277 277 277 277 277 277 277 277 277 278 278 278 278 277 277 277 277 277
310 309 309 309 308 308 307 306 306 305 303 302 302 301 299 298 297 296 295 295 294 293 293 292 292 292 291 291 290 289 289 289 289 289 289 289 289 289 289 289 288 287 287 287 287 286 285 286 286 285 285 284 284 284 283 282 282 281 281 280 279 278 277 277 277 277 277 277 277 277 277 278 277 278 278 278 277 277 277 277 277 277 277 277 277
310 309 309 309 307 307 306 305 305 304 303 302 301 300 299 297 296 295 295 294 294 293 293 293 292 292 291 291 290 289 289 289 289 289 289 289 289 289 288 288 287 287 287 287 286 286 286 286 286 285 285 285 284 284 283 282 281 281 281 280 278 277 277 277 277 277 277 277 277 277 277 278 277 277 277 277 277 277 276 277 277 277 277 277 277
309 309 309 308 307 306 305 304 304 303 302 301 300 299 298 297 296 296 295 294 294 294 293 293 292 291 291 291 290 289 289 288 288 288 288 289 288 288 288 287 287 287 287 287 287 287 287 287 286 285 285 284 284 283 282 282 282 281 281 280 279 277 277 277 277 277 277 277 277 277 277 277 277 276 276 276 276 276 276 276 277 277 277 277 277
308 308 308 307 306 305 304 303 303 302 301 300 299 298 297 297 296 295 295 294 294 293 293 292 292 292 291 291 290 289 288 288 288 288 288 288 288 288 287 287 287 287 287 287 287 288 289 288 287 286 285 284 283 282 281 281 282 281 280 279 278 277 276 276 276 276 276 276 276 276 276 276 276 276 276 276 276 276 276 277 277 277 277 277 278
309 308 307 306 305 304 304 303 302 301 300 299 299 298 297 296 296 295 294 294 294 294 293 293 292 291 291 291 290 288 288 287 287 287 287 287 287 287 287 287 287 287 287 287 288 289 289 288 287 285 284 284 283 282 282 282 281 279 278 277 277 277 277 276 276 276 276 276 276 276 276 276 276 276 276 276 276 276 277 277 277 277 277 277 277
308 307 306 305 305 304 304 303 302 301 300 299 298 298 297 296 295 295 294 293 293 293 292 292 292 291 291 290 289 288 287 287 287 287 287 287 287 287 286 287 287 287 287 288 289 289 288 287 286 285 284 283 282 282 282 282 279 277 277 277 277 277 277 277 277 276 276 276 276 276 276 276 276 276 276 276 276 276 276 276 276 275 275 275 275
307 307 306 306 305 305 304 303 302 301 300 299 299 298 297 296 295 295 294 293 293 292 291 291 290 290 290 289 289 287 287 287 286 286 286 286 286 286 287 287 287 287 288 288 288 288 287 285 284 283 283 282 282 282 282 281 279 278 278 277 276 276 277 277 277 276 276 276 276 276 276 275 275 276 276 275 275 275 274 274 274 274 273 273 274
306 306 306 305 305 304 303 302 301 301 300 300 299 299 297 296 296 295 294 293 293 292 291 290 290 289 289 289 288 287 287 286 286 286 286 286 286 286 286 287 287 287 287 287 287 286 284 284 283 282 282 282 282 282 281 280 279 278 277 276 276 277 278 277 276 276 276 276 276 276 276 275 275 275 275 275 275 275 273 272 273 273 272 273 274
303 303 303 302 302 302 302 301 300 300 300 300 299 298 297 296 295 294 293 292 292 291 290 290 289 289 289 289 288 287 286 286 286 286 285 285 285 286 286 286 287 287 287 286 285 284 283 283 282 281 281 281 281 281 280 279 278 277 276 276 277 277 277 276 276 276 275 275 275 276 276 276 275 275 275 275 275 274 272 271 272 272 272 273 274
301 301 300 300 299 299 299 299 299 298 298 298 297 296 296 295 295 294 293 291 291 290 290 289 289 289 289 288 287 286 286 286 285 285 285 285 285 286 286 287 287 287 286 285 284 283 282 282 282 281 281 280 280 279 279 279 277 277 277 277 277 277 276 275 275 275 275 275 275 275 276 276 275 275 275 275 274 273 272 271 271 272 272 273 273
299 299 299 299 298 298 297 296 296 296 296 295 295 295 295 295 294 294 292 291 290 289 289 288 288 288 288 287 286 286 286 285 285 285 285 285 285 286 286 287 286 286 284 283 282 282 282 282 281 281 280 279 279 279 279 279 278 277 277 277 276 276 275 274 274 275 275 275 275 275 275 276 275 275 275 274 273 272 271 271 271 272 272 272 272
300 299 299 298 298 298 297 297 296 295 294 294 294 294 294 294 293 292 291 291 290 289 288 288 288 287 287 286 285 285 285 285 284 285 285 285 285 286 286 286 285 284 282 282 282 282 282 281 281 280 280 279 279 279 279 278 278 277 277 276 276 275 274 274 275 275 275 275 275 275 276 276 276 275 274 273 272 271 270 271 271 271 271 271 272
300 301 300 299 299 298 297 296 296 295 295 294 293 293 293 293 292 291 290 289 289 288 287 287 287 287 286 285 285 285 284 284 284 284 284 285 285 285 285 284 283 282 281 281 281 281 281 281 280 280 279 279 279 279 279 278 278 277 277 276 275 275 275 276 275 275 275 275 275 275 276 275 275 274 273 272 271 270 270 270 270 271 271 271 271
299 300 300 300 300 300 299 297 296 295 294 294 293 293 292 292 291 290 289 289 288 287 287 287 286 286 286 285 284 284 284 284 284 284 285 285 284 284 284 283 281 280 280 280 281 281 281 280 280 279 279 279 279 278 278 278 277 277 276 275 275 276 276 275 275 274 275 275 275 275 275 275 274 273 272 271 270 270 270 270 270 271 271 271 271
299 299 300 300 300 301 301 300 298 296 294 293 293 293 293 292 291 290 289 289 288 287 286 286 286 286 285 285 284 284 283 283 284 284 284 284 283 282 282 281 280 279 280 280 281 281 280 279 279 279 279 278 278 278 278 277 277 276 275 275 275 276 275 275 274 274 274 274 274 275 275 274 273 272 271 270 270 270 270 270 271 271 271 271 271
298 298 299 299 299 300 300 300 300 298 296 295 294 294 294 293 292 291 290 289 288 287 286 286 285 285 285 285 284 284 283 283 283 284 284 283 282 281 280 279 278 278 280 280 280 280 279 279 279 279 278 278 277 277 277 277 276 275 275 275 275 275 275 275 274 274 274 274 274 274 274 274 273 272 271 270 270 270 270 270 271 271 271 271 270
296 297 298 299 299 299 299 299 300 300 299 298 296 295 294 293 292 292 291 290 289 287 286 285 285 284 284 284 283 283 283 283 283 284 284 282 281 280 278 278 278 278 280 280 280 279 279 279 278 278 277 277 277 277 276 275 275 275 275 275 275 275 275 274 274 274 273 273 273 274 274 274 273 272 271 270 270 270 270 270 271 271 271 271 270
295 296 297 297 298 298 298 298 299 300 300 300 299 298 297 296 295 295 295 294 293 291 289 287 286 284 284 283 282 282 282 282 283 284 284 283 282 280 279 278 279 279 280 280 279 279 279 278 278 277 277 277 276 276 275 274 274 275 275 275 275 275 275 274 274 273 273 273 273 273 274 273 272 271 270 270 270 270 270 270 271 271 271 270 270
295 296 296 296 297 297 297 298 297 298 298 299 299 298 297 297 296 296 295 294 292 291 290 289 287 285 284 283 282 282 282 282 283 284 285 284 282 281 280 280 280 280 279 279 279 278 278 278 277 277 277 276 275 274 274 274 274 275 275 275 275 275 275 274 274 273 273 273 273 273 273 272 271 270 270 269 270 270 270 270 271 271 270 270 270
295 296 296 296 296 296 296 296 296 296 295 295 295 294 293 291 291 291 291 290 288 287 287 287 286 285 284 283 283 283 283 284 285 285 283 281 280 279 279 279 279 279 279 279 278 278 278 277 277 276 276 275 274 274 274 274 275 275 275 275 275 275 274 274 273 273 273 273 273 273 272 271 270 269 269 269 270 270 270 270 271 270 270 270 270
294 296 296 296 296 295 295 295 295 294 294 293 292 291 290 288 286 285 285 285 285 284 283 283 283 283 283 282 282 282 283 285 285 283 281 279 278 278 278 278 278 278 278 278 278 278 277 277 276 275 275 274 273 274 274 274 274 275 275 275 275 275 274 273 273 273 273 273 272 272 271 269 269 269 269 269 270 270 270 270 270 270 270 269 269
291 294 295 295 295 294 294 294 294 293 292 291 290 289 288 287 285 283 282 282 282 282 281 281 281 280 281 281 282 283 284 284 282 281 279 278 277 278 277 277 277 278 278 277 277 277 276 276 275 274 274 273 273 273 274 274 274 274 274 275 275 274 273 273 272 272 272 272 272 271 269 268 268 269 269 269 270 270 270 270 270 270 270 269 269
288 290 292 293 293 293 293 293 292 292 291 290 289 288 287 286 285 283 281 279 279 279 279 279 279 279 279 280 281 283 283 282 280 279 278 278 277 277 277 277 278 278 277 276 276 276 275 275 274 273 273 273 273 273 273 273 274 274 274 274 274 273 273 272 272 272 272 272 271 270 269 268 268 269 269 269 270 270 270 270 270 270 269 269 269
287 288 289 290 291 292 292 292 292 291 290 289 289 288 287 285 284 282 280 278 277 276 277 277 278 279 279 280 281 281 281 280 279 278 277 277 277 277 277 277 278 277 276 276 276 275 274 274 273 273 273 273 273 273 273 273 273 273 273 273 273 273 272 272 271 271 272 272 271 269 268 268 269 269 269 269 270 270 270 270 269 269 269 269 269
286 287 288 289 290 291 291 291 290 290 290 289 288 287 286 284 282 280 280 279 277 277 276 276 277 278 279 279 279 278 278 278 277 277 277 277 277 277 277 278 277 276 276 275 275 274 273 273 273 273 273 273 273 273 273 273 273 273 273 273 273 273 272 271 271 271 272 271 270 269 269 268 269 269 269 269 270 270 270 269 269 269 269 269 269
286 287 287 288 288 289 290 290 289 289 289 288 287 285 284 282 280 279 278 278 277 277 276 276 276 277 277 277 277 277 277 277 277 277 277 276 277 278 278 277 276 275 275 275 274 273 273 273 273 273 273 273 273 273 273 273 273 273 273 273 273 272 272 271 271 271 271 271 270 269 269 268 269 269 269 269 270 270 269 269 269 269 269 269 269
284 285 286 287 288 288 289 289 288 287 287 286 284 283 281 280 279 278 277 277 277 277 276 276 275 275 275 276 276 277 277 276 276 276 276 276 277 277 277 276 276 275 275 274 273 273 273 273 273 273 273 272 272 272 272 273 272 272 272 272 272 272 271 271 271 271 271 271 270 269 269 268 269 269 269 269 269 269 269 269 269 269 269 269 269
282 283 284 285 286 287 287 287 286 285 284 283 282 281 279 278 277 277 277 277 277 276 276 276 275 275 275 276 276 276 276 275 275 275 276 276 277 276 276 275 275 275 274 274 273 273 273 273 273 273 272 272 272 272 272 272 272 272 272 272 272 272 271 271 271 270 270 271 270 269 268 268 269 269 269 269 269 269 269 269 269 269 269 269 269
280 281 282 284 284 285 286 286 285 283 282 281 280 279 278 277 277 276 276 276 276 276 276 275 275 275 275 275 275 275 275 275 275 276 277 277 276 275 275 275 275 274 274 273 273 273 273 273 273 272 272 272 272 272 272 272 272 272 272 272 272 272 271 271 270 270 270 270 270 269 268 268 269 269 269 269 269 269 269 269 269 268 269 269 268
278 279 280 282 283 284 284 283 283 282 281 279 278 277 277 276 276 276 276 276 276 275 275 275 275 275 276 276 276 276 276 276 277 277 277 276 275 275 275 274 274 274 273 273 273 273 273 273 272 272 272 272 272 272 272 272 272 272 272 272 272 272 271 271 270 270 270 270 269 269 268 268 269 269 269 269 269 269 269 268 268 268 269 268 268
277 278 279 280 282 282 282 281 281 280 279 278 278 277 276 276 276 276 276 275 275 275 275 275 275 276 277 277 277 277 278 278 277 276 276 275 275 275 274 274 274 273 273 273 273 273 273 272 272 272 272 272 272 272 272 272 272 272 272 272 272 271 271 270 270 270 270 270 269 268 268 268 269 269 269 269 269 269 268 268 268 268 269 269 268
276 277 278 279 280 281 281 280 279 279 278 277 277 276 276 275 275 275 275 275 275 275 275 276 277 277 277 276 276 277 278 278 276 275 275 274 274 274 273 273 273 273 273 273 273 273 272 272 272 272 272 272 272 272 272 272 272 272 272 272 271 271 270 270 270 270 270 269 269 268 268 269 269 269 269 269 269 269 268 268 268 268 268 268 268
277 277 278 279 280 280 280 279 278 277 277 276 275 275 275 275 274 275 275 274 275 275 276 277 277 276 274 275 276 276 276 275 275 274 274 274 273 273 273 273 273 273 273 273 273 272 272 272 272 272 272 272 272 272 272 272 272 272 272 272 271 271 270 270 270 270 269 269 268 268 268 268 268 268 268 269 269 268 268 268 268 268 268 268 268
277 277 278 278 279 279 278 278 277 276 275 275 274 274 274 274 274 274 274 274 275 276 277 278 276 274 273 274 275 275 274 273 274 274 273 273 273 273 273 273 273 273 273 273 272 272 272 272 272 272 271 271 272 272 271 271 271 271 271 271 271 271 270 269 269 269 269 268 268 268 268 268 268 268 268 269 268 268 268 268 268 268 268 268 268
277 277 277 278 278 277 276 276 275 275 274 274 274 273 273 274 274 274 274 275 276 276 276 275 274 274 274 274 274 273 273 273 273 273 272 273 273 273 272 272 272 272 272 272 272 272 272 272 272 271 271 271 271 271 271 271 271 271 271 271 271 270 269 269 269 269 269 268 268 268 268 268 268 268 268 268 268 268 268 268 268 268 268 268 268
276 276 277 277 277 276 275 275 274 274 274 273 273 273 273 273 273 273 274 275 276 275 274 274 274 274 274 274 273 273 273 273 273 273 272 272 272 272 272 272 272 272 272 272 272 272 272 271 271 271 271 271 271 271 271 271 271 271 271 270 270 270 269 269 269 269 268 268 268 268 268 268 268 268 268 268 268 268 268 268 268 268 268 268 268
275 275 276 276 275 275 274 274 273 273 273 273 273 272 272 272 273 274 274 275 274 274 274 274 274 274 274 274 273 273 273 273 273 272 272 272 272 272 272 272 272 272 272 272 271 271 271 271 271 271 271 271 271 271 271 271 271 271 271 270 270 269 269 269 269 269 269 268 268 268 268 268 268 268 268 268 268 268 268 268 268 268 268 268 268
274 274 274 274 274 274 273 273 272 272 272 272 272 272 272 273 273 273 273 273 273 274 275 274 274 274 274 273 273 273 273 272 272 272 272 272 272 272 272 272 272 272 271 271 271 271 271 271 271 270 270 271 271 271 271 271 271 271 271 270 270 269 269 269 270 270 269 268 268 268 268 268 268 268 268 268 268 268 268 268 268 268 268 268 268
273 273 273 273 273 273 272 272 272 272 272 271 271 272 272 272 272 272 273 273 275 275 275 274 274 274 273 273 272 272 272 272 271 271 271 271 271 272 271 271 271 271 271 271 271 271 271 270 270 270 270 270 270 271 271 271 271 271 271 271 270 270 269 270 270 270 269 268 268 268 268 268 268 268 268 268 268 268 268 268 268 268 268 268 268
272 272 272 272 271 271 271 271 271 271 271 271 271 271 271 272 272 273 274 275 275 275 274 274 273 272 272 272 272 272 272 271 271 271 271 271 271 271 271 271 271 271 271 271 271 270 270 270 270 270 270 270 270 270 271 271 271 271 271 270 270 270 270 270 271 270 268 268 268 268 268 268 268 268 268 268 268 268 268 268 269 268 268 268 268
271 271 271 271 271 271 270 270 270 271 271 271 271 271 272 273 274 274 275 275 274 273 273 272 272 271 272 272 272 271 271 271 271 271 271 271 271 271 271 271 271 271 271 271 270 270 270 270 269 269 269 269 270 270 271 271 271 270 270 270 270 270 270 270 270 269 268 268 268 268 268 268 268 268 268 268 268 268 268 269 269 268 268 268 268
Wind_Speed
49 50 51 51 51 51 50 49 50 50 50 50 50 49 49 50 49 49 49 48 47 46 45 43 42 42 43 43 42 41 40 39 37 35 33 31 29 27 25 24 25 25 25 24 22 21 20 19 19 18 17 17 16 16 17 18 20 21 22 25 27 28 31 34 41 51 55 52 49 52 53 54 55 54 53 53 53 51 51 51 52 52 50 50 50
48 51 52 53 55 53 52 52 53 53 53 52 52 51 52 52 52 51 51 50 48 47 45 44 43 43 43 43 42 41 40 39 38 36 34 32 30 28 26 25 26 26 25 24 22 20 20 19 18 18 17 16 16 17 18 19 20 23 24 26 28 30 31 34 39 46 54 55 51 51 53 54 54 53 52 53 53 52 51 51 53 54 52 51 52
46 51 54 56 57 56 56 56 55 55 55 54 54 54 54 54 54 54 53 51 50 48 46 45 44 43 43 43 43 42 41 40 39 37 35 33 30 28 27 26 26 25 24 23 22 21 20 19 18 17 16 16 17 18 19 20 22 24 26 27 29 31 32 33 37 42 50 55 52 51 54 55 54 53 52 52 51 52 52 52 54 56 56 54 53
43 50 55 57 58 59 59 59 57 57 58 57 56 56 56 55 56 55 54 53 51 49 47 46 45 44 43 44 44 43 42 41 39 37 35 33 31 29 27 26 26 25 24 23 22 21 20 19 18 17 16 16 18 19 20 21 23 25 27 29 30 32 32 33 36 40 46 53 54 52 53 55 55 52 51 51 51 52 54 54 55 57 57 56 55
43 48 53 57 59 60 60 60 60 61 61 60 58 57 57 57 57 56 55 54 52 50 48 47 46 45 44 44 44 44 43 41 40 37 35 33 31 30 28 27 26 25 24 23 22 21 20 19 18 17 17 17 18 19 21 22 25 26 28 29 30 31 33 34 36 38 42 49 53 53 52 54 54 52 50 51 53 54 55 54 56 58 59 59 57
45 48 52 56 58 59 60 60 61 62 63 61 59 59 59 59 59 57 56 54 53 51 49 47 46 45 44 44 44 44 43 42 40 38 36 34 32 30 29 27 26 25 24 23 22 21 21 20 18 17 17 18 18 20 22 24 26 27 28 29 29 31 33 34 35 37 39 44 48 51 52 51 52 53 51 49 53 56 56 59 62 59 55 59 61
48 49 53 55 56 56 56 56 57 61 63 62 61 61 61 60 59 58 56 54 53 52 50 48 47 45 44 44 44 44 44 42 40 38 37 35 33 31 29 28 27 25 24 23 22 22 21 19 18 17 17 18 19 21 23 25 26 27 27 28 29 30 32 33 34 35 37 41 44 47 50 51 51 54 53 51 53 54 52 59 68 66 59 58 61
51 51 53 54 53 52 49 49 53 58 60 59 60 61 61 60 59 57 55 54 53 52 50 48 46 45 44 44 44 45 44 43 42 40 38 36 33 31 30 28 27 26 24 24 23 22 21 19 18 18 17 19 20 22 24 25 26 27 27 27 28 29 30 30 31 33 36 40 44 46 50 53 53 55 56 53 55 56 52 53 63 68 66 64 63
52 51 53 53 50 47 46 48 52 55 56 57 57 59 60 59 58 56 55 54 53 51 49 47 46 45 45 45 45 46 45 44 43 41 39 37 35 33 31 29 28 26 25 24 23 22 21 19 18 18 18 19 21 23 24 25 27 27 27 27 27 27 27 28 29 32 35 40 44 46 49 53 55 57 59 57 56 58 54 48 53 58 60 65 67
53 51 51 51 47 46 47 49 52 53 54 54 54 55 57 57 57 56 55 53 52 50 48 47 46 46 45 46 46 47 47 46 44 43 40 38 36 34 32 30 28 26 25 24 23 22 20 18 18 18 19 20 21 22 24 25 26 26 25 24 24 24 24 26 28 30 34 38 42 44 48 53 54 55 58 57 53 52 48 45 50 55 55 60 66
54 51 50 49 47 47 49 50 51 52 52 52 51 52 54 54 55 55 54 52 51 49 48 48 47 46 46 47 47 48 49 48 46 44 42 39 37 35 32 30 28 27 26 24 23 21 19 18 18 19 20 21 21 22 23 24 24 24 23 21 20 19 21 24 27 29 32 37 40 43 46 51 52 49 51 51 50 50 51 48 50 53 53 54 60
54 52 50 49 49 49 50 50 50 51 50 49 49 50 52 52 53 53 53 51 50 49 49 49 48 47 47 47 49 50 50 48 47 45 43 40 38 35 33 31 28 27 26 24 22 20 19 19 19 20 21 21 21 23 23 24 24 23 22 20 18 18 19 22 26 28 31 36 40 42 43 46 48 48 48 48 49 51 53 51 49 50 53 55 59
52 51 50 51 51 49 49 49 49 49 48 48 49 49 50 51 51 51 51 50 50 49 49 49 48 47 47 48 49 50 50 49 47 46 44 41 38 35 33 31 29 28 26 24 22 20 20 20 21 21 21 21 22 22 23 25 25 23 22 21 20 20 20 22 24 26 30 33 38 42 42 42 46 49 48 46 47 50 53 54 54 54 57 60 63
48 48 49 50 50 48 48 48 48 48 47 47 48 48 49 49 49 49 49 49 50 50 49 49 48 48 48 48 49 50 50 49 48 46 43 40 38 35 33 31 29 28 26 24 22 21 22 22 22 22 22 22 21 22 23 25 25 23 22 22 22 23 23 25 25 25 27 30 35 41 41 40 43 47 47 45 45 48 52 56 58 57 59 62 64
45 46 48 49 48 46 46 46 46 46 46 46 47 46 47 47 47 48 48 49 49 49 49 49 48 48 48 48 49 51 50 49 47 45 42 39 37 35 33 31 30 28 26 25 24 24 24 24 24 24 23 22 21 21 23 23 22 21 21 22 24 25 26 26 25 25 27 29 33 38 40 40 42 44 44 45 45 46 50 54 58 58 60 64 66
44 46 47 47 46 44 43 44 45 45 45 45 45 45 46 46 46 47 47 48 48 48 48 48 48 48 48 48 50 51 49 48 47 44 41 38 37 36 33 31 29 28 27 26 25 24 24 24 25 24 23 21 20 20 21 21 19 20 22 24 25 26 27 27 26 26 27 30 32 36 38 39 39 39 40 41 44 48 51 56 59 58 59 62 64
42 44 45 44 43 42 42 43 44 44 44 44 44 44 44 45 45 46 47 47 48 48 49 48 48 48 48 48 50 51 49 47 46 43 39 37 37 36 33 31 29 28 26 25 25 24 23 24 24 24 22 21 19 20 20 18 18 21 23 24 25 27 29 28 27 28 29 31 33 34 36 36 37 39 40 42 45 47 48 52 53 51 51 52 54
38 40 41 41 41 41 41 42 42 42 43 42 42 42 43 44 44 45 46 46 47 48 48 48 48 48 47 48 49 49 49 47 45 42 38 37 37 35 32 30 28 27 25 25 24 23 23 23 23 22 22 20 19 18 18 17 19 21 22 24 27 29 28 27 28 30 31 32 34 35 36 37 40 43 44 44 44 40 39 42 44 43 44 47 50
35 37 38 38 39 39 40 40 41 41 41 40 41 41 42 43 43 44 45 45 45 46 47 48 48 47 47 48 48 49 48 46 44 41 39 38 37 34 31 29 28 26 26 25 24 23 23 23 22 21 20 19 17 17 16 17 19 20 22 25 28 28 27 26 29 31 31 33 36 37 38 39 41 43 43 42 40 36 34 36 36 37 39 44 48
33 34 35 35 36 38 38 39 40 41 41 40 40 41 41 41 42 43 43 44 45 46 47 47 47 46 46 48 48 49 48 46 44 41 39 38 37 34 31 29 28 26 26 25 24 23 23 23 21 19 17 16 15 16 16 16 18 20 23 25 26 26 26 26 28 30 32 35 37 38 40 40 41 42 41 39 37 35 34 32 31 32 36 40 44
30 31 32 32 33 35 36 37 39 40 41 40 40 39 40 41 41 42 43 44 45 46 47 46 46 46 47 48 49 49 48 45 43 41 39 38 36 33 31 29 28 27 26 25 23 23 24 23 20 16 15 15 15 16 16 16 17 20 22 23 24 24 24 26 29 32 33 36 37 38 39 40 40 39 38 37 36 33 31 28 28 30 33 37 42
27 26 27 28 29 30 32 34 36 38 39 39 39 39 39 40 41 41 42 43 44 46 46 46 47 47 48 49 49 49 47 45 43 41 39 37 35 33 30 29 28 27 26 24 24 24 24 21 17 15 14 15 15 15 15 16 17 19 21 21 22 23 24 27 31 32 33 35 37 38 38 38 39 39 38 37 35 32 29 28 29 31 34 36 39
28 25 24 23 23 24 26 29 32 35 37 38 38 39 39 40 41 41 42 42 44 46 47 47 48 48 48 50 51 49 48 46 43 41 39 36 34 33 30 29 28 27 25 24 25 25 22 18 15 15 15 15 15 15 14 15 17 18 19 20 21 23 26 28 30 31 33 34 35 37 37 37 38 38 38 37 36 34 33 34 35 36 37 39 41
33 28 25 23 21 21 22 24 28 32 35 36 37 38 38 39 40 40 41 42 43 46 48 48 49 49 50 51 52 51 49 47 45 42 39 36 34 33 31 29 28 26 25 26 25 23 19 15 14 15 15 15 14 14 14 15 16 17 18 20 22 24 26 28 29 30 32 33 34 36 37 36 37 37 37 37 37 38 39 40 41 41 41 44 47
36 33 30 27 24 23 22 23 25 29 32 35 36 37 38 39 40 40 41 42 44 47 49 50 51 51 51 53 54 53 50 48 45 43 39 37 34 33 32 29 26 25 26 26 24 21 16 14 15 15 14 14 14 14 14 14 15 16 18 20 22 24 25 26 28 29 31 32 34 36 37 36 36 36 36 37 39 40 42 44 46 46 46 49 52
36 37 34 30 28 27 26 26 26 27 30 33 36 37 38 39 40 41 42 43 45 47 49 51 52 52 53 54 56 54 51 48 46 43 40 37 35 33 31 28 25 25 27 26 22 19 16 15 15 15 13 13 14 13 13 13 14 16 17 19 21 22 23 24 26 28 31 33 34 36 37 37 37 37 37 38 41 42 44 46 50 51 51 52 56
36 38 37 36 34 33 32 31 31 30 31 33 35 38 39 40 41 41 42 44 46 48 50 52 53 54 54 55 56 54 51 49 46 44 41 39 36 34 31 29 28 28 28 25 20 17 16 15 15 14 13 13 13 12 13 13 14 15 16 18 20 21 22 23 25 27 30 32 34 36 37 37 37 38 39 40 43 45 45 46 50 52 54 54 57
36 37 38 39 39 38 36 35 35 35 35 35 37 39 40 41 43 43 42 43 45 48 52 54 55 56 56 56 55 53 51 50 48 45 41 38 36 35 33 32 31 29 26 23 19 16 16 15 14 13 12 11 11 12 13 14 14 15 16 18 19 20 21 22 24 26 28 31 33 36 37 37 38 39 40 42 45 46 47 47 49 52 54 55 56
37 37 38 40 42 41 39 38 39 39 40 40 41 42 43 43 44 44 44 45 45 47 50 53 56 56 56 56 56 54 52 49 45 40 37 35 35 35 34 32 29 26 23 21 18 17 16 14 13 12 10 10 10 12 13 13 13 14 15 17 19 19 20 22 24 26 28 31 33 35 36 37 39 40 41 44 47 47 47 48 49 52 55 55 55
38 39 39 40 42 43 42 42 41 42 44 44 44 45 45 45 44 45 46 47 48 48 50 51 53 54 55 56 56 53 50 45 39 36 35 35 34 32 30 27 25 24 23 20 18 17 16 13 11 10 9 9 11 12 12 12 12 13 14 16 18 19 21 22 25 27 29 31 32 34 34 36 39 41 43 45 48 49 49 48 49 52 55 56 57
39 40 40 40 41 42 44 44 44 44 46 46 46 46 47 46 46 45 46 46 46 47 49 49 50 51 53 54 53 50 45 41 39 38 36 33 30 28 27 25 24 23 22 19 17 16 14 11 10 9 9 10 12 12 11 11 12 14 15 16 17 19 21 23 25 27 29 31 32 32 33 35 38 41 43 45 48 50 51 50 51 54 55 55 55
42 42 41 40 40 42 44 45 45 46 46 46 47 47 47 46 45 44 46 46 45 45 47 48 47 48 50 51 50 47 43 40 38 36 33 29 28 27 25 23 23 22 19 16 15 13 11 9 9 9 10 12 12 11 10 11 13 15 17 18 19 19 21 23 25 27 29 31 32 32 33 35 38 41 44 45 47 50 51 52 54 56 56 55 54
41 42 42 41 40 42 44 45 46 46 47 47 47 47 48 48 46 43 42 41 40 41 43 45 45 46 47 48 47 44 41 38 35 32 30 29 28 26 24 23 22 19 16 15 14 12 10 9 9 10 11 12 11 10 10 12 14 15 17 19 20 21 22 24 26 28 30 31 32 33 34 36 38 41 44 46 47 48 51 54 57 57 56 55 55
37 39 41 41 42 43 44 45 46 46 46 47 47 47 47 47 46 43 40 37 35 36 37 40 43 45 47 46 44 41 38 36 34 32 31 30 29 27 25 24 21 18 16 15 13 11 9 9 10 11 12 11 10 10 10 12 14 16 17 19 20 22 23 24 27 29 31 32 32 33 34 37 39 41 44 47 47 49 52 56 57 57 56 56 57
34 36 37 40 42 44 45 46 46 46 46 46 47 47 47 46 45 43 41 39 39 38 37 36 39 43 44 43 40 37 35 34 34 34 33 32 30 29 27 24 20 18 17 15 13 11 9 10 11 11 11 10 10 10 11 12 14 16 18 19 21 22 24 26 28 30 32 32 33 33 35 38 39 41 44 45 47 50 55 57 57 56 56 56 56
34 34 36 39 42 44 46 46 46 46 46 46 46 46 45 44 43 42 41 40 41 41 39 37 36 36 39 39 37 35 35 35 35 34 33 31 30 28 25 21 19 18 17 15 13 11 10 11 11 11 10 10 10 10 12 13 15 16 18 20 22 23 25 27 29 31 32 32 33 34 36 39 41 42 44 45 47 51 55 57 57 56 55 54 55
34 34 35 38 41 43 45 46 46 45 45 45 44 44 43 42 42 41 41 41 42 42 42 41 40 38 38 38 37 36 35 35 34 33 32 31 29 26 22 21 20 19 17 15 13 12 11 11 12 11 10 9 10 11 12 14 15 17 19 20 22 24 25 28 29 31 32 33 34 35 37 39 42 43 44 46 50 54 56 57 57 57 56 54 54
36 35 35 37 40 42 44 45 45 44 43 43 43 42 42 41 41 41 42 43 44 45 45 45 46 45 44 42 39 38 37 35 35 35 34 33 30 26 24 23 21 19 17 15 13 12 12 12 11 10 9 9 10 11 13 14 16 18 19 21 22 23 25 28 29 30 32 33 35 36 38 40 42 43 44 47 52 55 57 56 56 57 57 56 54
38 37 35 36 39 42 44 44 44 43 43 42 42 41 41 41 42 43 44 45 46 46 46 46 47 47 47 46 43 42 41 40 40 38 36 33 30 27 26 24 21 19 17 15 13 13 12 11 10 9 9 10 11 12 13 15 16 18 20 22 23 24 25 28 30 31 32 33 35 36 39 41 43 43 45 48 53 55 56 56 56 56 57 57 55
40 39 36 35 38 42 43 43 43 43 42 42 42 41 41 43 43 44 45 46 47 47 47 47 48 48 47 46 46 46 45 44 41 37 34 33 31 28 26 23 21 19 17 15 14 13 12 10 9 9 9 10 11 12 13 15 17 18 20 22 24 25 26 27 29 31 32 33 35 37 40 42 43 44 46 50 53 55 56 56 57 56 55 55 56
37 37 36 35 37 40 42 42 42 42 41 42 42 42 42 44 44 45 46 48 48 47 47 47 47 46 46 46 47 47 45 41 37 35 33 32 30 28 25 23 21 18 16 15 14 12 11 10 9 8 8 9 11 12 13 15 17 18 20 22 24 25 27 28 29 30 32 33 35 37 40 42 42 44 48 52 53 54 55 56 56 56 55 55 55
34 36 36 35 36 39 40 40 40 40 39 40 41 42 43 44 46 47 48 48 48 49 48 47 46 47 47 48 47 44 39 35 34 34 32 30 28 26 25 22 20 18 16 15 13 12 11 9 8 8 8 9 11 12 13 15 17 18 21 23 24 26 27 28 29 30 31 33 35 38 40 42 43 45 49 52 53 54 56 56 56 55 55 56 55
32 33 34 35 36 38 39 38 38 39 39 40 41 42 44 45 47 48 49 49 50 50 49 48 48 49 48 46 44 38 33 31 32 32 31 29 28 26 24 22 20 18 16 14 13 11 10 8 7 7 8 9 11 12 14 15 17 19 21 23 24 26 27 28 29 30 31 33 36 39 41 43 45 48 50 51 53 54 55 56 56 55 55 55 54
27 29 32 34 35 36 36 36 37 37 38 39 40 42 44 46 47 48 50 51 52 51 49 50 51 49 47 44 41 36 33 31 31 30 29 28 26 25 22 21 18 16 15 13 12 10 8 7 6 7 8 10 11 13 14 15 17 19 21 23 24 26 26 27 29 29 31 33 37 40 42 44 46 48 49 51 53 55 55 55 56 55 55 55 54
24 27 31 32 33 34 34 35 36 37 38 39 41 42 44 46 48 50 51 52 52 51 50 50 50 49 47 44 40 36 33 32 30 29 27 26 25 23 21 19 17 15 14 12 10 8 7 6 6 7 8 10 12 13 14 15 17 18 20 22 24 25 25 26 28 28 30 33 36 39 42 45 46 47 48 51 53 54 54 55 55 55 54 54 53
22 26 29 31 32 33 33 34 35 37 38 40 42 43 45 46 48 50 52 53 53 52 50 50 50 48 46 42 38 35 33 32 30 29 27 25 23 21 19 18 16 14 12 10 8 7 6 6 7 8 9 10 12 13 14 15 16 17 19 21 22 23 24 25 27 27 29 32 35 39 42 44 45 45 47 50 52 52 53 55 54 53 53 53 52
21 24 27 29 30 31 32 34 35 37 38 40 42 44 46 47 49 51 51 52 52 50 49 49 48 45 41 38 36 34 32 30 29 28 26 24 22 20 18 16 14 12 10 8 7 6 6 7 8 9 10 11 13 13 14 15 16 17 18 20 21 22 23 25 26 27 28 31 35 38 41 42 42 44 47 49 51 52 53 54 54 53 53 52 51
20 22 25 27 29 30 32 34 35 37 39 41 42 44 46 48 50 50 50 49 48 47 46 45 43 40 37 36 34 33 31 29 27 26 25 23 21 19 16 14 12 10 9 8 7 6 7 7 8 10 11 12 14 14 15 16 16 17 18 19 20 21 23 25 26 26 28 31 34 37 39 39 40 42 46 49 50 51 52 53 53 53 52 52 51
19 21 24 26 27 29 31 33 35 37 40 41 43 45 46 48 48 47 46 44 43 42 41 40 38 36 34 33 32 31 29 28 26 25 24 22 20 17 15 13 11 9 8 7 7 7 7 8 9 10 12 13 15 16 16 17 17 17 18 19 20 21 23 25 26 26 28 30 34 37 37 37 38 41 44 47 49 50 51 52 52 52 52 52 52
19 21 23 25 27 29 31 33 35 37 39 41 43 44 44 44 43 42 41 41 39 38 37 36 34 32 31 31 31 29 28 27 26 25 23 21 18 16 14 12 10 9 8 8 8 8 8 9 10 11 13 14 15 17 17 17 18 18 19 19 20 22 24 26 26 25 27 30 35 36 35 35 37 41 44 47 49 50 51 51 51 51 51 51 51
19 21 23 25 27 29 30 32 34 36 38 40 41 41 40 39 39 39 38 37 36 36 35 33 31 29 29 28 28 27 27 26 25 24 22 19 16 14 13 11 10 9 8 8 8 8 9 10 11 12 13 15 16 17 18 18 18 18 19 19 20 22 24 26 25 25 26 31 34 34 33 34 37 40 44 47 49 50 50 50 50 50 50 51 51
Wind_Direction
239 235 234 233 233 233 232 233 235 237 238 238 239 240 240 241 242 243 244 244 244 243 240 237 235 234 232 230 228 228 228 228 229 230 231 232 233 236 239 244 250 255 257 260 263 268 269 268 267 269 273 279 286 291 294 296 299 300 302 302 303 303 304 302 300 300 301 303 304 303 304 305 305 306 307 308 308 309 310 309 308 309 311 313 313
246 240 237 236 236 235 234 235 236 237 238 239 240 240 241 242 242 243 243 243 244 243 241 238 235 234 233 232 230 229 229 229 229 230 231 232 233 235 239 243 249 253 256 258 262 266 265 264 264 267 273 280 287 291 293 295 297 298 299 300 301 302 301 300 299 299 300 302 303 303 303 303 304 306 307 309 311 312 312 312 312 312 315 316 316
253 246 239 238 238 237 236 237 237 238 239 239 240 241 241 242 242 242 243 243 243 242 241 238 236 234 233 232 232 230 229 229 229 230 231 232 233 235 239 243 249 253 255 258 261 263 262 262 262 266 272 280 285 288 291 294 295 297 298 300 300 300 300 299 298 297 298 300 302 304 304 303 303 305 307 309 313 314 314 314 314 315 317 317 317
256 248 243 241 240 239 239 239 239 240 241 240 240 241 242 242 243 242 242 242 242 241 239 237 236 234 233 233 232 230 229 229 229 229 230 231 233 235 239 244 248 252 254 256 259 260 260 260 261 264 270 277 283 287 290 293 294 296 298 299 299 299 299 298 296 296 296 298 301 303 303 302 304 307 310 312 315 315 315 315 316 316 316 316 316
260 251 246 243 242 242 241 240 240 241 242 241 241 242 243 243 243 242 242 242 241 239 238 236 234 233 233 233 232 231 230 230 230 230 230 231 233 235 239 244 248 250 252 254 256 256 257 258 259 264 271 277 283 287 290 292 294 296 297 298 298 297 297 296 294 293 292 294 298 300 301 302 306 310 314 316 316 316 315 315 315 315 316 316 314
265 256 248 244 244 244 243 242 243 244 244 244 243 244 244 243 243 242 241 241 239 238 237 235 234 234 233 233 232 231 230 230 231 231 231 232 232 234 238 242 246 248 249 252 253 253 254 255 258 265 272 280 285 286 289 291 293 294 295 296 296 295 295 294 292 290 290 291 295 299 302 305 309 311 314 316 316 316 316 316 315 313 312 313 311
269 261 251 246 245 245 245 246 247 248 247 245 244 244 244 243 243 242 241 241 239 237 236 235 235 234 233 232 231 231 231 231 231 230 230 231 232 235 238 241 244 246 247 250 250 251 253 254 260 268 274 280 283 286 288 290 291 292 293 294 294 293 293 292 292 293 295 297 298 302 305 308 310 311 313 315 314 313 314 314 313 312 311 311 308
272 265 254 248 246 245 247 249 250 250 248 246 245 244 243 243 242 242 241 240 239 238 237 236 235 233 232 232 231 230 230 230 230 230 229 230 232 235 238 241 243 244 246 248 248 250 253 256 262 268 273 279 282 284 286 288 289 290 291 292 292 293 294 296 299 302 304 305 305 307 309 310 311 311 312 313 310 309 310 309 308 310 312 312 308
272 266 255 249 248 247 248 250 250 249 247 246 245 245 245 243 242 241 240 239 238 237 236 236 235 233 231 230 230 229 229 229 229 230 230 231 233 235 237 239 241 242 244 245 245 248 252 256 263 268 273 276 278 283 286 289 292 293 295 296 296 299 301 303 305 306 306 306 305 307 307 306 308 309 310 310 309 309 311 309 305 305 307 307 305
271 264 255 251 250 249 249 250 250 249 247 246 245 245 245 243 241 240 239 238 236 235 234 234 233 232 231 230 230 229 229 229 229 230 231 232 233 235 236 238 238 240 241 241 244 248 251 257 263 267 271 274 278 285 290 292 294 294 295 295 296 298 299 299 300 300 300 299 299 301 301 300 302 305 305 306 307 306 307 306 303 302 302 302 302
271 265 256 251 250 249 249 251 250 249 247 246 245 245 243 242 240 238 237 236 235 234 234 233 232 231 231 231 231 230 230 229 228 229 229 230 232 233 235 236 236 237 238 239 242 246 251 258 264 267 271 276 283 288 290 291 291 288 288 289 290 289 287 287 289 289 290 291 292 294 294 295 297 299 299 301 301 301 301 301 299 299 299 298 299
270 266 257 251 250 250 251 251 250 248 247 245 245 244 242 240 239 237 236 235 234 234 233 233 232 231 230 230 231 231 230 229 227 228 229 229 231 232 233 233 233 235 236 237 241 246 253 261 266 270 274 280 284 287 289 289 287 284 286 290 289 285 279 278 280 282 284 285 286 288 288 289 292 293 295 297 299 299 300 299 296 296 295 294 293
270 266 258 252 251 252 252 251 250 248 246 245 244 242 240 239 238 238 237 235 234 234 233 233 232 231 231 230 230 230 229 228 227 227 228 229 230 231 231 231 232 233 234 236 241 248 256 263 267 272 276 279 282 285 287 286 283 281 285 290 293 293 289 282 277 277 279 281 282 285 286 288 290 293 295 297 298 298 298 296 294 294 293 292 291
272 267 258 254 254 254 252 251 249 247 245 244 243 241 240 240 238 238 236 234 234 233 233 232 231 231 231 230 230 229 227 226 226 226 227 228 229 230 230 230 230 231 233 236 242 249 256 262 267 271 273 275 279 283 283 281 280 284 291 296 298 297 293 289 287 285 284 284 285 287 289 289 289 291 294 295 294 294 294 295 296 295 294 293 292
273 268 261 257 256 255 253 251 248 245 243 242 241 240 240 238 237 236 235 234 235 234 233 233 231 231 231 230 229 228 226 224 225 226 227 228 229 229 228 229 230 230 233 237 243 250 255 262 267 269 270 272 276 280 279 281 287 293 296 293 292 292 293 296 297 293 288 286 285 287 288 288 287 288 292 294 294 292 291 291 292 292 292 292 291
272 268 263 260 258 255 253 250 246 244 242 241 240 239 238 237 236 235 234 234 234 233 233 233 231 231 230 229 228 227 224 223 224 225 226 227 229 228 226 228 229 231 236 241 246 251 256 262 266 266 267 270 273 275 276 282 287 287 286 288 292 296 297 297 295 291 288 286 284 285 286 287 287 288 290 292 291 289 289 288 287 288 289 290 289
273 270 266 262 259 255 252 248 245 243 241 239 239 238 237 236 235 235 234 233 232 231 231 231 230 230 229 228 227 225 222 222 223 225 225 226 228 229 228 228 231 234 240 244 249 253 257 261 263 264 266 269 270 272 276 280 282 282 288 294 295 293 295 299 300 297 295 291 289 291 292 290 289 289 290 292 292 292 292 290 290 292 291 289 289
277 272 267 263 258 254 251 248 245 243 241 240 240 238 237 236 235 235 234 233 233 232 231 230 229 229 229 229 228 225 222 223 224 225 224 225 228 230 231 232 234 238 242 245 249 253 256 260 261 264 268 270 270 274 278 281 283 285 289 290 289 292 301 307 305 301 300 299 299 301 299 297 296 296 296 297 298 299 295 291 293 295 291 289 289
279 271 265 260 256 253 251 248 246 244 242 242 240 238 236 235 235 235 234 233 233 232 231 230 229 229 229 229 227 223 222 222 224 224 224 225 227 229 230 233 236 239 243 246 249 253 255 259 262 266 270 272 274 278 281 281 283 284 285 286 290 299 307 308 305 304 305 303 302 303 302 302 302 301 301 302 303 305 300 293 292 292 288 288 291
282 273 265 260 255 251 249 247 245 244 242 241 239 237 237 237 236 236 234 232 232 231 231 230 230 229 229 227 225 221 220 221 223 224 223 224 227 228 230 234 237 241 244 246 249 252 255 258 262 264 267 270 275 278 278 280 281 283 287 291 297 304 309 307 304 304 302 300 301 303 305 305 304 302 304 307 309 310 307 297 287 283 284 286 288
294 282 274 267 261 254 250 246 244 242 241 240 238 238 239 239 238 237 235 232 231 231 230 230 229 229 228 226 222 219 218 220 221 222 221 223 226 229 230 234 237 240 242 244 247 250 253 257 261 262 262 266 272 274 276 281 285 287 291 297 302 306 307 302 299 301 302 302 304 305 305 305 305 306 310 312 313 314 308 296 284 280 282 283 285
313 300 289 281 274 265 257 251 247 244 242 241 241 240 240 240 239 237 234 233 232 231 230 229 228 227 226 223 220 217 217 218 219 220 220 222 226 229 230 233 237 238 239 242 244 247 250 255 259 260 262 266 269 272 279 285 287 291 296 301 303 303 299 297 299 304 304 303 304 305 306 309 310 313 316 316 316 315 305 292 287 286 284 284 284
318 312 304 296 290 280 269 260 254 250 246 244 242 242 241 240 238 236 234 233 232 231 230 228 226 225 224 221 218 215 215 216 216 217 218 220 224 228 229 230 234 236 237 238 242 246 251 255 258 258 261 265 268 273 282 286 289 296 300 302 302 301 300 301 304 304 303 304 306 308 311 314 316 317 319 319 318 314 306 300 298 295 291 290 289
314 311 307 303 300 295 286 274 263 255 250 246 243 242 242 241 239 237 235 233 233 232 230 228 225 224 222 219 216 214 214 214 214 215 216 217 221 225 228 229 230 232 235 237 241 247 251 252 253 256 259 264 270 276 282 288 295 301 302 300 301 303 304 305 305 304 305 308 311 312 315 318 320 319 320 319 317 314 311 310 307 303 299 299 298
308 306 303 302 301 299 295 285 272 260 253 248 246 245 245 243 240 238 236 234 233 232 231 229 226 223 220 218 216 214 213 213 212 212 213 215 217 221 225 227 226 229 235 239 242 246 247 246 249 255 260 266 272 278 285 294 300 300 298 299 301 304 306 306 307 309 311 314 316 317 319 320 320 321 321 321 318 316 316 316 313 310 309 308 307
299 299 296 295 294 293 290 285 278 268 258 253 251 250 249 247 243 239 237 235 233 232 232 230 227 224 221 218 216 215 212 211 211 210 211 213 214 216 219 220 218 223 233 239 241 243 243 244 249 255 260 265 272 281 291 298 298 296 297 299 301 305 308 310 312 314 317 319 319 318 319 321 322 323 324 324 321 320 320 319 317 315 314 313 311
289 291 292 290 285 282 282 279 275 270 262 256 253 250 248 246 243 241 239 236 234 232 231 230 228 225 221 217 215 214 212 210 209 209 209 210 211 211 213 213 214 220 231 237 238 239 241 244 247 252 258 266 277 289 296 298 296 295 297 300 303 308 312 314 317 319 319 319 319 318 320 323 324 326 328 327 324 323 323 320 317 315 316 315 312
284 284 286 285 280 276 275 272 267 262 260 258 256 253 250 247 245 245 244 243 240 235 232 230 229 226 221 216 213 212 211 210 209 209 209 211 212 212 211 214 218 224 231 234 233 234 238 241 244 250 259 271 285 293 294 293 294 296 300 304 308 312 315 318 320 321 319 319 319 320 322 325 327 329 330 327 324 323 323 321 317 315 316 315 310
284 282 280 280 277 273 270 266 261 255 252 252 252 251 250 249 248 247 246 244 243 240 237 233 230 226 221 217 214 212 211 211 211 212 213 215 215 215 216 218 222 225 227 227 227 228 232 236 242 252 264 277 286 287 284 285 291 297 304 310 312 315 319 323 324 323 323 322 322 323 325 328 330 331 328 324 323 323 323 321 317 316 316 314 309
283 280 278 277 274 271 267 264 260 255 250 247 244 242 241 241 241 241 240 239 237 236 235 234 231 226 221 217 216 217 217 217 216 215 215 214 213 214 217 220 220 220 221 220 220 223 227 233 241 253 268 277 278 277 277 284 294 302 307 311 315 319 324 327 327 325 325 324 324 326 329 331 330 329 326 323 323 323 323 321 318 316 316 314 310
278 275 274 274 273 270 267 264 260 256 251 246 243 240 238 236 234 233 234 234 231 229 229 229 227 224 220 217 215 215 217 218 217 214 211 210 209 210 213 214 213 215 217 216 216 219 226 233 243 255 266 270 270 274 281 293 304 310 312 316 322 325 328 330 328 326 325 325 326 329 332 331 328 325 324 323 322 323 323 321 319 317 316 314 310
272 271 271 273 272 269 265 261 258 255 250 245 242 239 236 234 231 229 229 229 228 227 226 225 223 220 217 216 214 213 213 212 211 210 206 203 205 208 208 209 210 211 211 212 214 219 225 234 245 256 262 266 270 279 292 304 312 316 318 322 327 330 332 331 328 326 326 327 329 332 334 330 325 323 323 324 324 323 322 320 319 318 317 314 311
271 269 269 271 270 267 263 259 256 254 250 246 243 239 236 233 229 225 224 223 223 224 224 223 221 217 214 213 213 213 211 207 203 202 198 196 201 203 201 203 207 207 205 208 213 218 223 233 245 255 259 265 274 286 300 311 316 319 322 325 329 333 333 331 328 326 326 328 332 335 334 329 326 326 326 326 325 323 321 320 320 319 318 314 312
274 271 269 268 268 266 263 259 256 253 250 247 244 240 236 232 227 221 216 211 208 211 216 218 217 214 211 210 209 208 204 199 195 193 191 193 197 199 199 202 204 202 202 207 211 214 221 232 244 253 259 267 279 293 307 315 318 321 325 327 330 332 332 331 329 326 326 329 334 336 334 330 329 329 328 327 326 323 321 321 321 320 318 315 313
278 276 272 268 266 264 262 259 256 253 249 246 244 240 235 229 223 218 213 206 200 197 198 202 206 209 208 204 200 197 193 189 188 190 192 194 197 200 203 202 199 196 200 205 208 212 221 233 244 252 260 272 287 300 310 317 320 324 327 328 330 332 332 331 329 326 327 332 335 336 335 333 332 331 329 327 325 323 322 323 322 320 318 316 314
280 278 275 269 264 261 260 258 254 252 249 245 242 237 230 224 218 212 207 202 196 191 187 185 189 196 199 195 189 186 185 185 187 190 192 194 198 203 204 198 193 195 199 201 203 210 219 232 243 252 262 276 291 304 312 318 322 326 329 329 331 333 332 331 329 329 330 332 335 338 338 335 334 333 331 327 324 323 323 323 322 320 318 317 315
282 280 277 271 265 261 258 256 252 249 246 241 236 230 224 219 213 206 199 195 191 186 183 179 176 176 180 181 179 177 178 182 185 186 188 194 199 200 197 194 194 196 197 197 201 209 218 230 242 252 265 280 294 306 314 319 324 328 330 331 332 332 332 330 329 330 330 332 335 340 340 336 335 334 331 327 325 325 324 324 323 321 319 318 316
279 278 277 274 268 262 257 252 248 243 238 234 230 225 218 212 206 199 195 191 187 183 180 177 175 173 171 170 170 170 172 175 180 183 187 193 196 194 191 192 193 194 194 197 201 209 220 232 242 254 270 285 298 308 315 321 326 328 330 331 332 333 332 329 328 329 330 332 338 342 340 337 335 335 331 327 326 326 326 325 324 321 320 319 318
276 276 276 273 267 260 254 249 243 237 231 227 223 217 211 205 199 194 191 187 184 181 178 176 175 173 169 166 168 172 175 179 185 188 190 190 191 191 190 190 190 191 193 196 200 210 222 233 244 259 276 291 302 310 316 323 327 329 331 332 332 333 333 329 327 329 331 334 340 342 340 336 336 334 331 328 328 327 326 325 324 322 321 320 319
273 273 273 271 264 256 250 245 239 232 226 221 216 210 205 200 194 191 188 184 180 179 177 174 172 170 170 172 176 182 186 188 190 190 189 187 187 188 187 188 189 190 192 196 203 213 225 234 247 265 282 295 304 312 318 324 328 330 331 331 332 333 332 329 328 330 333 337 342 343 339 337 336 334 331 329 330 329 327 326 325 324 322 320 319
271 270 270 268 260 252 245 239 233 228 223 217 211 205 201 196 191 188 185 181 178 176 174 172 172 174 178 183 187 191 193 191 187 185 185 186 186 185 185 186 187 188 191 198 206 215 226 237 252 270 285 297 306 314 321 325 329 330 331 332 332 332 331 330 330 331 335 340 344 343 339 338 336 333 330 331 332 330 329 327 326 325 324 323 322
269 266 265 261 253 245 239 234 228 223 217 211 206 201 196 191 188 185 182 178 176 175 173 174 177 179 182 186 189 191 192 188 183 181 182 183 183 183 183 184 185 187 193 199 208 218 228 239 256 273 287 299 308 316 322 325 328 330 331 331 332 331 331 330 330 332 336 341 343 342 340 338 335 331 331 333 333 331 330 329 327 326 326 325 324
264 261 260 255 247 239 235 229 222 216 210 204 200 196 192 188 185 183 180 178 177 177 178 181 181 179 179 184 187 187 185 181 180 181 181 180 181 182 182 183 185 188 194 202 211 222 233 244 262 279 294 305 312 318 323 326 328 330 330 331 331 331 331 331 330 333 338 342 343 343 342 338 333 332 333 335 334 333 332 330 328 328 327 326 326
256 254 251 245 237 231 226 220 214 208 203 199 194 191 188 186 183 181 180 179 179 181 184 185 181 176 177 182 185 182 179 178 179 180 180 180 180 180 180 182 185 189 196 206 216 225 237 252 269 287 303 310 313 319 324 325 328 329 329 330 330 331 331 330 330 334 341 344 344 343 339 334 332 333 335 336 335 334 333 331 330 329 329 328 328
248 244 238 231 224 219 214 209 205 201 196 193 189 187 186 184 182 181 180 180 182 185 186 182 178 177 180 182 181 179 178 178 177 178 178 179 180 179 180 183 186 192 200 210 220 230 244 264 282 296 306 310 314 320 322 323 327 329 328 328 329 330 329 328 329 335 342 345 344 341 335 331 331 334 335 336 337 335 333 332 331 330 330 329 329
241 233 226 219 214 209 205 201 198 195 192 189 186 184 182 182 182 181 182 183 186 186 183 179 178 181 182 180 177 177 178 177 176 177 178 178 178 180 182 185 189 196 205 213 224 238 256 276 290 299 307 311 313 318 321 322 325 326 325 326 328 327 326 326 329 336 344 347 344 336 330 329 332 335 336 337 338 336 334 333 332 331 331 331 330
227 219 213 209 205 200 196 194 191 188 186 185 183 181 180 180 181 182 184 186 186 184 181 179 181 183 182 178 176 177 176 174 175 176 177 177 179 182 184 188 192 199 208 217 230 248 265 283 294 301 308 312 314 317 320 321 322 324 324 325 327 326 324 325 328 335 346 348 341 331 327 329 333 336 337 338 339 337 336 334 334 333 334 333 333
209 203 200 198 195 192 189 186 184 182 181 180 179 179 179 181 182 183 184 184 182 180 179 180 182 182 179 176 175 175 174 173 174 175 176 178 181 182 185 189 194 202 212 223 237 254 269 284 295 303 308 312 316 319 319 319 321 323 323 324 326 326 324 323 326 336 347 346 335 326 326 331 336 337 338 339 340 338 337 336 335 335 336 336 336
192 190 189 187 185 184 183 181 180 180 179 178 178 179 180 182 183 183 183 181 179 178 180 181 180 179 176 174 173 173 173 173 175 176 178 180 181 182 185 191 197 205 217 230 243 258 272 285 296 304 309 313 317 318 319 320 321 321 322 325 327 326 323 322 327 339 347 341 329 323 327 334 338 338 339 341 341 340 339 338 337 338 338 338 339
177 178 177 176 176 176 176 176 176 177 177 178 179 180 180 181 181 180 179 178 177 177 178 178 177 175 173 173 173 173 173 174 176 178 179 180 181 183 187 193 201 211 223 236 248 260 274 287 296 303 309 314 316 317 318 319 319 319 323 325 326 326 324 324 330 341 345 335 325 325 331 338 339 339 340 342 343 342 341 341 341 340 340 341 341
168 170 170 170 172 172 173 174 175 176 178 180 180 180 179 178 176 175 175 175 175 174 173 173 173 172 173 174 173 173 174 176 178 179 179 180 182 185 191 198 208 218 229 241 253 264 277 288 296 303 308 312 315 317 317 317 317 319 322 324 326 327 325 325 332 342 342 331 325 329 337 341 341 340 341 343 345 344 343 343 344 343 343 343 343